Appleton, WI

6:52 AM CDT on October 22, 2019 (GMT -0500)
Outagamie County Regional

Weather History for KATW - August, 2019

Change the Weather History Date:

Saturday, August 3, 2019

  Actual Average Record
Temperature  
Mean Temperature 75 °F -  
Max Temperature 86 °F 80 °F 97 °F (1988)
Min Temperature 64 °F 60 °F 48 °F (1950)
Cooling Degree Days 10    
Growing Degree Days 25 (Base 50)    
Moisture  
Dew Point 60 °F    
Average Humidity 69    
Maximum Humidity 94    
Minimum Humidity 35    
Precipitation  
Precipitation 0.00 in - - ()
Sea Level Pressure  
Sea Level Pressure 30.07 in    
Wind  
Wind Speed 6 mph (West)    
Max Wind Speed 17 mph    
Max Gust Speed 41 mph    
Visibility 10 miles    
Events      
Averages and records for this station are not official NWS values.
T = Trace of Precipitation, MM = Missing Value Source: NWS Daily Summary

Daily Weather History Graph

Daily Weather History Graph

Search for Another Location

Airport or City:

Astronomy

Aug. 03, 2019 Rise Set
Actual Time 5:43 AM CDT 8:16 PM CDT
Civil Twilight 5:10 AM CDT 8:49 PM CDT
Nautical Twilight 4:29 AM CDT 9:30 PM CDT
Astronomical Twilight 3:42 AM CDT 10:16 PM CDT
Moon 8:41 AM CDT (8/3) 10:15 PM CDT (8/3)
Length of Visible Light 15h 38m
Length of Day
14h 32m
Waxing Crescent, 10% of the Moon is Illuminated
Aug 3
Waxing Crescent
Aug 7
First Quarter
Aug 15
Full
Aug 23
Last Quarter
Aug 30
New

Hourly Weather History & Observations

Time (CDT) Temp. Heat Index Dew Point Humidity Pressure Visibility Wind Dir Wind Speed Gust Speed Precip Events Conditions
12:15 AM 71.6 °F - 57.2 °F 60% 30.08 in 10.0 mi WSW 8.1 mph - N/A   Clear
12:35 AM 69.8 °F - 59.0 °F 68% 30.08 in 10.0 mi West 6.9 mph - N/A   Clear
12:55 AM 68.0 °F - 59.0 °F 73% 30.09 in 10.0 mi West 6.9 mph - N/A   Clear
1:15 AM 69.8 °F - 59.0 °F 68% 30.09 in 10.0 mi West 6.9 mph - N/A   Clear
1:35 AM 69.8 °F - 57.2 °F 64% 30.09 in 10.0 mi WSW 5.8 mph - N/A   Clear
1:55 AM 69.8 °F - 59.0 °F 68% 30.09 in 10.0 mi SW 4.6 mph - N/A   Scattered Clouds
2:15 AM 69.8 °F - 57.2 °F 64% 30.09 in 10.0 mi WSW 4.6 mph - N/A   Mostly Cloudy
2:35 AM 69.8 °F - 59.0 °F 68% 30.08 in 10.0 mi WSW 8.1 mph - N/A   Overcast
2:55 AM 69.8 °F - 59.0 °F 68% 30.08 in 10.0 mi West 5.8 mph - N/A   Overcast
3:15 AM 69.8 °F - 59.0 °F 68% 30.08 in 10.0 mi WSW 8.1 mph - N/A   Overcast
3:35 AM 69.8 °F - 59.0 °F 68% 30.08 in 10.0 mi WSW 6.9 mph - N/A   Overcast
3:55 AM 69.8 °F - 59.0 °F 68% 30.08 in 10.0 mi West 6.9 mph - N/A   Overcast
4:15 AM 68.0 °F - 59.0 °F 73% 30.08 in 10.0 mi West 6.9 mph - N/A   Overcast
4:35 AM 68.0 °F - 60.8 °F 78% 30.08 in 10.0 mi West 8.1 mph - N/A   Overcast
4:55 AM 68.0 °F - 60.8 °F 78% 30.08 in 10.0 mi West 6.9 mph - N/A   Mostly Cloudy
5:15 AM 68.0 °F - 60.8 °F 78% 30.08 in 10.0 mi West 8.1 mph - N/A   Overcast
5:20 AM 68.0 °F - 62.6 °F 83% 30.08 in 10.0 mi West 8.1 mph - N/A   Mostly Cloudy
5:45 AM 68.0 °F - 62.6 °F 83% 30.09 in 10.0 mi West 6.9 mph - N/A   Mostly Cloudy
6:45 AM 69.8 °F - 64.4 °F 83% 30.09 in 10.0 mi West 6.9 mph - N/A   Mostly Cloudy
7:45 AM 71.6 °F - 62.6 °F 73% 30.09 in 10.0 mi NW 5.8 mph - N/A   Mostly Cloudy
8:45 AM 75.2 °F - 60.8 °F 61% 30.10 in 10.0 mi North 6.9 mph - N/A   Scattered Clouds
9:45 AM 78.8 °F - 60.8 °F 54% 30.09 in 10.0 mi North 10.4 mph - N/A   Scattered Clouds
10:45 AM 80.6 °F 80.8 °F 57.2 °F 45% 30.08 in 10.0 mi NNW 6.9 mph - N/A   Scattered Clouds
11:45 AM 82.4 °F 82.0 °F 57.2 °F 42% 30.07 in 10.0 mi Calm Calm - N/A   Mostly Cloudy
12:45 PM 84.2 °F 83.5 °F 57.2 °F 40% 30.06 in 10.0 mi NW 6.9 mph - N/A   Mostly Cloudy
1:45 PM 84.2 °F 83.5 °F 57.2 °F 40% 30.04 in 10.0 mi WNW 6.9 mph - N/A   Mostly Cloudy
2:45 PM 84.2 °F 83.0 °F 55.4 °F 37% 30.03 in 10.0 mi WSW 6.9 mph - N/A   Mostly Cloudy
3:45 PM 86.0 °F 84.5 °F 55.4 °F 35% 30.00 in 10.0 mi West 8.1 mph - N/A   Mostly Cloudy
4:45 PM 75.2 °F - 55.4 °F 50% 30.05 in 10.0 mi NNE 17.3 mph 41.4 mph N/A   Mostly Cloudy
5:45 PM 71.6 °F - 59.0 °F 64% 30.05 in 10.0 mi ESE 10.4 mph - N/A   Mostly Cloudy
6:45 PM 69.8 °F - 60.8 °F 73% 30.04 in 10.0 mi Variable 5.8 mph - N/A   Mostly Cloudy
7:45 PM 69.8 °F - 59.0 °F 68% 30.03 in 10.0 mi Calm Calm - N/A   Mostly Cloudy
8:45 PM 66.2 °F - 59.0 °F 78% 30.04 in 10.0 mi Calm Calm - N/A   Scattered Clouds
9:45 PM 66.2 °F - 62.6 °F 88% 30.06 in 10.0 mi Calm Calm - N/A   Scattered Clouds
10:45 PM 66.2 °F - 64.4 °F 94% 30.06 in 10.0 mi Calm Calm - N/A   Scattered Clouds
10:55 PM 64.4 °F - 62.6 °F 94% 30.06 in 10.0 mi North 3.5 mph - N/A   Clear
11:15 PM 64.4 °F - 62.6 °F 94% 30.07 in 10.0 mi Calm Calm - N/A   Clear
11:35 PM 64.4 °F - 62.6 °F 94% 30.07 in 10.0 mi Calm Calm - N/A   Scattered Clouds
11:55 PM 64.4 °F - 62.6 °F 94% 30.07 in 10.0 mi NNW 3.5 mph - N/A   Clear